Location: New Canada
(47.1017°N, 68.5042°W)
Time: 18:10:10
(UTC+00:00)

POLYITAN 1 - Visible Passes

Search period start: 28 March 2023 00:00
Search period end: 07 April 2023 00:00
Orbit: 578 x 596 km, 98.0° (Epoch: 27 March)

Date Brightness Start Highest point End Pass type
(mag) Time Alt. Az. Time Alt. Az. Time Alt. Az.
28 Mar ? 06:20:23 10° NNE 06:21:34 17° NE 06:21:34 17° NE visible
28 Mar ? 07:56:04 10° N 07:58:02 21° NW 07:58:02 21° NW visible
29 Mar ? 06:27:19 10° NNE 06:28:47 20° NE 06:28:47 20° NE visible
29 Mar ? 08:03:15 10° NNW 08:05:16 19° NW 08:05:16 19° NW visible
30 Mar ? 06:34:16 10° NNE 06:35:59 23° NE 06:35:59 23° NE visible
30 Mar ? 08:10:28 10° NNW 08:12:28 18° NW 08:12:28 18° NW visible
31 Mar ? 06:41:12 10° NNE 06:43:11 26° NNE 06:43:11 26° NNE visible
31 Mar ? 08:17:41 10° NNW 08:19:40 16° NW 08:19:40 16° NW visible
01 Apr ? 06:48:09 10° NNE 06:50:21 30° NNE 06:50:21 30° NNE visible
01 Apr ? 08:24:58 10° NNW 08:26:50 14° NW 08:26:50 14° NW visible
02 Apr ? 06:55:05 10° NNE 06:57:31 34° NNE 06:57:31 34° NNE visible
02 Apr ? 08:32:21 10° NW 08:33:59 12° WNW 08:33:59 12° WNW visible
03 Apr ? 07:02:02 10° NNE 07:04:39 38° NNE 07:04:39 38° NNE visible
03 Apr ? 08:39:57 10° NW 08:40:55 11° WNW 08:41:07 11° WNW visible
04 Apr ? 07:08:58 10° N 07:11:46 41° N 07:11:46 41° N visible
05 Apr ? 05:42:11 10° ENE 05:42:24 11° ENE 05:42:24 11° ENE visible
05 Apr ? 07:15:55 10° N 07:18:52 43° NNW 07:18:52 43° NNW visible
06 Apr ? 05:48:39 10° NE 05:49:29 13° ENE 05:49:29 13° ENE visible
06 Apr ? 07:22:51 10° N 07:25:57 43° NNW 07:25:57 43° NNW visible
